• Em Portugal
  • Lista de países
  • Para 7 dias
  • Temperatura da água
  • Mapas de satélite
  • Mapa do tempo
  • Widgets de tempo
  • user-avatar
    Iniciar Sessão

    Previsão horária em Uspenskiy

    Hoje, 22 Maio, Terça-feira

    Tempo Temperatura Precipitação Vento Pressão Humidade
    00:00 +11°C° 0,1 mm 4 m/s 747 mmHg 84%
    01:00 +11°C° 0,1 mm 4 m/s 747 mmHg 86%
    02:00 +11°C° 0,1 mm 4 m/s 747 mmHg 88%
    03:00 +11°C° 0,3 mm 4 m/s 747 mmHg 89%
    04:00 +11°C° 0,3 mm 4 m/s 747 mmHg 90%
    05:00 +11°C° 0,3 mm 4 m/s 747 mmHg 90%
    06:00 +11°C° 0,3 mm 4 m/s 747 mmHg 91%
    07:00 +11°C° 0,3 mm 4 m/s 747 mmHg 91%
    08:00 +11°C° 0,3 mm 4 m/s 747 mmHg 91%
    09:00 +12°C° 0,1 mm 4 m/s 747 mmHg 91%
    10:00 +12°C° 0,1 mm 4 m/s 747 mmHg 91%
    11:00 +13°C° 0,1 mm 4 m/s 747 mmHg 92%
    12:00 +14°C° 0 mm 4 m/s 747 mmHg 89%
    13:00 +15°C° 0 mm 4 m/s 747 mmHg 87%
    14:00 +18°C° 0 mm 3 m/s 747 mmHg 85%
    15:00 +18°C° 0,2 mm 3 m/s 747 mmHg 84%
    16:00 +19°C° 0,2 mm 3 m/s 747 mmHg 83%
    17:00 +19°C° 0,2 mm 3 m/s 747 mmHg 82%
    18:00 +18°C° 0,1 mm 2 m/s 747 mmHg 86%
    19:00 +17°C° 0,1 mm 2 m/s 747 mmHg 90%
    20:00 +15°C° 0,1 mm 2 m/s 747 mmHg 94%
    21:00 +15°C° 0 mm 2 m/s 747 mmHg 95%
    22:00 +14°C° 0 mm 2 m/s 747 mmHg 95%
    23:00 +14°C° 0 mm 2 m/s 747 mmHg 96%

    Amanhã, 23 Maio, Quarta-feira

    Tempo Temperatura Precipitação Vento Pressão Humidade
    00:00 +14°C° 0 mm 1 m/s 747 mmHg 96%
    01:00 +13°C° 0 mm 1 m/s 747 mmHg 96%
    02:00 +13°C° 0 mm 1 m/s 747 mmHg 96%
    03:00 +13°C° 0 mm 1 m/s 747 mmHg 96%
    04:00 +13°C° 0 mm 1 m/s 747 mmHg 96%
    05:00 +13°C° 0 mm 0 m/s 747 mmHg 96%
    06:00 +14°C° 0 mm 0 m/s 747 mmHg 91%
    07:00 +18°C° 0 mm 1 m/s 748 mmHg 85%
    08:00 +20°C° 0 mm 1 m/s 748 mmHg 79%
    09:00 +21°C° 0 mm 1 m/s 747 mmHg 72%
    10:00 +22°C° 0 mm 1 m/s 747 mmHg 65%
    11:00 +24°C° 0 mm 1 m/s 747 mmHg 58%
    12:00 +24°C° 0 mm 1 m/s 747 mmHg 55%
    13:00 +25°C° 0 mm 1 m/s 746 mmHg 53%
    14:00 +25°C° 0 mm 1 m/s 746 mmHg 50%
    15:00 +25°C° 0 mm 1 m/s 746 mmHg 52%
    16:00 +25°C° 0 mm 1 m/s 745 mmHg 55%
    17:00 +25°C° 0 mm 1 m/s 745 mmHg 57%
    18:00 +22°C° 0 mm 1 m/s 745 mmHg 63%
    19:00 +20°C° 0 mm 1 m/s 745 mmHg 69%
    20:00 +18°C° 0 mm 1 m/s 745 mmHg 75%
    21:00 +16°C° 0 mm 1 m/s 745 mmHg 77%
    22:00 +16°C° 0 mm 1 m/s 745 mmHg 79%
    23:00 +15°C° 0 mm 1 m/s 745 mmHg 82%

    Depois de amanhã, 24 Maio, Quinta-feira

    Tempo Temperatura Precipitação Vento Pressão Humidade
    00:00 +15°C° 0 mm 1 m/s 744 mmHg 84%
    01:00 +14°C° 0 mm 1 m/s 744 mmHg 86%
    02:00 +14°C° 0 mm 1 m/s 744 mmHg 88%
    03:00 +14°C° 0 mm 1 m/s 744 mmHg 88%
    04:00 +15°C° 0 mm 1 m/s 744 mmHg 89%
    05:00 +15°C° 0 mm 1 m/s 744 mmHg 89%
    06:00 +17°C° 0 mm 2 m/s 744 mmHg 84%
    07:00 +18°C° 0 mm 2 m/s 744 mmHg 79%
    08:00 +20°C° 0 mm 2 m/s 744 mmHg 74%
    09:00 +21°C° 0 mm 3 m/s 744 mmHg 69%
    10:00 +22°C° 0 mm 3 m/s 744 mmHg 64%
    11:00 +24°C° 0 mm 3 m/s 744 mmHg 60%
    12:00 +23°C° 0 mm 4 m/s 743 mmHg 58%
    13:00 +23°C° 0 mm 4 m/s 743 mmHg 57%
    14:00 +23°C° 0 mm 4 m/s 743 mmHg 56%
    15:00 +23°C° 0 mm 4 m/s 743 mmHg 59%
    16:00 +22°C° 0 mm 4 m/s 743 mmHg 63%
    17:00 +22°C° 0 mm 4 m/s 743 mmHg 67%
    18:00 +20°C° 0 mm 4 m/s 743 mmHg 70%
    19:00 +19°C° 0 mm 4 m/s 743 mmHg 74%
    20:00 +17°C° 0 mm 4 m/s 744 mmHg 78%
    21:00 +15°C° 0 mm 5 m/s 744 mmHg 81%
    22:00 +14°C° 0 mm 5 m/s 745 mmHg 84%
    23:00 +13°C° 0 mm 6 m/s 745 mmHg 86%

    25 Maio, Sexta-feira

    Tempo Temperatura Precipitação Vento Pressão Humidade
    00:00 +13°C° 0 mm 6 m/s 745 mmHg 85%
    01:00 +13°C° 0 mm 6 m/s 745 mmHg 83%
    02:00 +11°C° 0 mm 6 m/s 746 mmHg 81%
    03:00 +11°C° 0 mm 6 m/s 746 mmHg 80%
    04:00 +10°C° 0 mm 6 m/s 746 mmHg 79%
    05:00 +9°C° 0 mm 6 m/s 747 mmHg 77%
    06:00 +10°C° 0 mm 6 m/s 747 mmHg 71%
    07:00 +11°C° 0 mm 7 m/s 748 mmHg 66%
    08:00 +11°C° 0 mm 7 m/s 748 mmHg 60%
    09:00 +12°C° 0 mm 7 m/s 748 mmHg 57%
    10:00 +14°C° 0 mm 7 m/s 749 mmHg 54%
    11:00 +15°C° 0 mm 7 m/s 749 mmHg 52%
    12:00 +15°C° 0 mm 7 m/s 749 mmHg 51%
    13:00 +15°C° 0 mm 7 m/s 749 mmHg 51%
    14:00 +15°C° 0 mm 7 m/s 749 mmHg 51%
    15:00 +15°C° 0 mm 6 m/s 750 mmHg 53%
    16:00 +15°C° 0 mm 6 m/s 750 mmHg 56%
    17:00 +14°C° 0 mm 5 m/s 750 mmHg 58%
    18:00 +13°C° 0 mm 5 m/s 751 mmHg 61%
    19:00 +11°C° 0 mm 4 m/s 751 mmHg 65%
    20:00 +10°C° 0 mm 4 m/s 751 mmHg 68%
    21:00 +9°C° 0 mm 3 m/s 752 mmHg 69%
    22:00 +8°C° 0 mm 3 m/s 752 mmHg 71%
    23:00 +7°C° 0 mm 3 m/s 753 mmHg 72%

    26 Maio, Sábado

    Tempo Temperatura Precipitação Vento Pressão Humidade
    00:00 +7°C° 0 mm 3 m/s 753 mmHg 73%
    01:00 +5°C° 0 mm 3 m/s 753 mmHg 74%
    02:00 +6°C° 0 mm 2 m/s 753 mmHg 75%
    03:00 +6°C° 0 mm 2 m/s 754 mmHg 75%
    04:00 +6°C° 0 mm 2 m/s 754 mmHg 75%
    05:00 +7°C° 0 mm 2 m/s 755 mmHg 76%
    06:00 +9°C° 0 mm 2 m/s 755 mmHg 69%
    07:00 +12°C° 0 mm 2 m/s 755 mmHg 63%
    08:00 +13°C° 0 mm 3 m/s 756 mmHg 56%
    09:00 +14°C° 0 mm 3 m/s 756 mmHg 54%
    10:00 +16°C° 0 mm 3 m/s 755 mmHg 52%
    11:00 +18°C° 0 mm 3 m/s 755 mmHg 49%
    12:00 +18°C° 0 mm 3 m/s 755 mmHg 50%
    13:00 +19°C° 0 mm 3 m/s 755 mmHg 50%
    14:00 +19°C° 0 mm 3 m/s 755 mmHg 50%
    15:00 +19°C° 0 mm 2 m/s 754 mmHg 52%
    16:00 +19°C° 0 mm 2 m/s 754 mmHg 55%
    17:00 +19°C° 0 mm 2 m/s 754 mmHg 57%
    18:00 +17°C° 0 mm 2 m/s 754 mmHg 63%
    19:00 +15°C° 0 mm 1 m/s 754 mmHg 69%
    20:00 +14°C° 0 mm 1 m/s 754 mmHg 74%
    21:00 +13°C° 0 mm 1 m/s 754 mmHg 76%
    22:00 +12°C° 0 mm 1 m/s 754 mmHg 78%
    23:00 +12°C° 0 mm 1 m/s 754 mmHg 80%

    27 Maio, Domingo

    Tempo Temperatura Precipitação Vento Pressão Humidade
    00:00 +11°C° 0 mm 1 m/s 754 mmHg 82%
    01:00 +11°C° 0 mm 1 m/s 754 mmHg 83%
    02:00 +10°C° 0 mm 1 m/s 754 mmHg 85%
    03:00 +10°C° 0 mm 2 m/s 754 mmHg 85%
    04:00 +10°C° 0 mm 2 m/s 754 mmHg 84%
    05:00 +10°C° 0 mm 2 m/s 754 mmHg 84%
    06:00 +14°C° 0 mm 2 m/s 754 mmHg 77%
    07:00 +16°C° 0 mm 2 m/s 754 mmHg 71%
    08:00 +18°C° 0 mm 2 m/s 753 mmHg 65%
    09:00 +19°C° 0 mm 2 m/s 753 mmHg 61%
    10:00 +20°C° 0 mm 3 m/s 753 mmHg 56%
    11:00 +21°C° 0 mm 3 m/s 753 mmHg 52%
    12:00 +22°C° 0 mm 3 m/s 752 mmHg 52%
    13:00 +22°C° 0 mm 3 m/s 752 mmHg 51%
    14:00 +22°C° 0 mm 3 m/s 751 mmHg 51%
    15:00 +22°C° 0 mm 3 m/s 751 mmHg 55%
    16:00 +22°C° 0 mm 3 m/s 751 mmHg 59%
    17:00 +21°C° 0 mm 3 m/s 750 mmHg 63%
    18:00 +19°C° 0 mm 3 m/s 750 mmHg 68%
    19:00 +18°C° 0 mm 3 m/s 750 mmHg 73%
    20:00 +16°C° 0 mm 3 m/s 750 mmHg 78%
    21:00 +14°C° 0 mm 3 m/s 750 mmHg 80%
    22:00 +13°C° 0 mm 3 m/s 750 mmHg 82%
    23:00 +13°C° 0 mm 3 m/s 750 mmHg 84%
    Mostrar mais